WZZ8690 LOWW-LIMC

Flight info

Callsign WZZ8690
Flight time 1h 6m
Altitude 34000
Route IMVO3C/29 OSPEN DCT ABRUK DCT SETAL DCT DETSA/N0442F330 DCT RENTA/N0369F190 M984 EVRIP
Aircraft A321/M-SDE3FGHIRWY/LB1

Departure

Time 2026-04-25 23:00
Airport Vienna International Airport (LOWW)

Arrival

Time 2026-04-26 00:07
Airport Milan Malpensa International Airport (LIMC)
Time Latitude Longitude Altitude Speed Heading
2026-04-25 22:16 48.12098 16.55322 610 ft 0 kts 295°
2026-04-25 22:51 48.12099 16.55320 609 ft 2 kts 295°
2026-04-25 22:51 48.12099 16.55256 614 ft 10 kts 233°
2026-04-25 22:51 48.12040 16.55206 616 ft 7 kts 207°
2026-04-25 22:51 48.12035 16.55202 613 ft 0 kts 207°
2026-04-25 22:52 48.12019 16.55190 611 ft 8 kts 206°
2026-04-25 22:52 48.11925 16.55188 609 ft 16 kts 187°
2026-04-25 22:52 48.11852 16.55300 613 ft 17 kts 117°
2026-04-25 22:53 48.11799 16.55462 622 ft 18 kts 116°
2026-04-25 22:53 48.11747 16.55626 620 ft 15 kts 116°
2026-04-25 22:53 48.11698 16.55776 622 ft 17 kts 116°
2026-04-25 22:53 48.11646 16.55937 611 ft 18 kts 116°
2026-04-25 22:54 48.11589 16.56109 620 ft 19 kts 116°
2026-04-25 22:54 48.11530 16.56291 622 ft 20 kts 116°
2026-04-25 22:54 48.11467 16.56482 616 ft 19 kts 116°
2026-04-25 22:54 48.11407 16.56666 615 ft 20 kts 115°
2026-04-25 22:55 48.11346 16.56857 614 ft 21 kts 116°
2026-04-25 22:55 48.11279 16.57059 618 ft 22 kts 116°
2026-04-25 22:55 48.11210 16.57272 616 ft 23 kts 116°
2026-04-25 22:55 48.11138 16.57493 616 ft 24 kts 116°
2026-04-25 22:56 48.11053 16.57646 612 ft 17 kts 180°
2026-04-25 22:56 48.11020 16.57630 609 ft 0 kts 204°
2026-04-25 22:58 48.11019 16.57630 609 ft 0 kts 204°
2026-04-25 22:59 48.10986 16.57607 609 ft 12 kts 205°
2026-04-25 22:59 48.10929 16.57497 613 ft 16 kts 279°
2026-04-25 22:59 48.10942 16.57449 620 ft 0 kts 295°
2026-04-25 22:59 48.10962 16.57387 615 ft 30 kts 295°
2026-04-25 23:00 48.11168 16.56753 616 ft 103 kts 296°
2026-04-25 23:00 48.11569 16.55524 621 ft 157 kts 296°
2026-04-25 23:00 48.12055 16.54000 1141 ft 163 kts 291°
2026-04-25 23:00 48.12149 16.52320 1736 ft 169 kts 263°
2026-04-25 23:01 48.11511 16.50769 2398 ft 188 kts 230°
2026-04-25 23:01 48.10352 16.49591 2685 ft 212 kts 221°
2026-04-25 23:01 48.09074 16.48397 3168 ft 219 kts 220°
2026-04-25 23:01 48.07793 16.47209 3702 ft 220 kts 222°
2026-04-25 23:02 48.06596 16.45748 4039 ft 231 kts 227°
2026-04-25 23:02 48.05316 16.44076 4254 ft 257 kts 227°
2026-04-25 23:02 48.03938 16.42271 4875 ft 267 kts 227°
2026-04-25 23:02 48.02523 16.40435 5632 ft 271 kts 226°
2026-04-25 23:03 48.01091 16.38580 6456 ft 274 kts 225°
2026-04-25 23:03 47.99647 16.36704 7239 ft 276 kts 226°
2026-04-25 23:03 47.98193 16.34809 8034 ft 278 kts 226°
2026-04-25 23:03 47.96812 16.32799 8844 ft 276 kts 238°
2026-04-25 23:04 47.95945 16.30298 9646 ft 271 kts 252°
2026-04-25 23:04 47.95257 16.27702 10314 ft 279 kts 252°
2026-04-25 23:04 47.94523 16.24897 10506 ft 302 kts 252°
2026-04-25 23:04 47.93731 16.21873 10694 ft 322 kts 252°
2026-04-25 23:05 47.92899 16.18724 11245 ft 330 kts 252°
2026-04-25 23:05 47.92045 16.15513 11823 ft 336 kts 252°
2026-04-25 23:05 47.91176 16.12251 12484 ft 340 kts 251°
2026-04-25 23:05 47.90297 16.08959 13174 ft 344 kts 251°
2026-04-25 23:06 47.89409 16.05633 13865 ft 347 kts 251°
2026-04-25 23:06 47.88511 16.02278 14498 ft 350 kts 251°
2026-04-25 23:06 47.87616 15.98940 15094 ft 353 kts 251°
2026-04-25 23:06 47.86702 15.95530 15709 ft 356 kts 251°
2026-04-25 23:07 47.85780 15.92096 16324 ft 359 kts 251°
2026-04-25 23:07 47.84847 15.88625 16951 ft 363 kts 251°
2026-04-25 23:07 47.83901 15.85131 17571 ft 366 kts 251°
2026-04-25 23:07 47.82948 15.81605 18196 ft 369 kts 251°
2026-04-25 23:08 47.81988 15.78046 18754 ft 372 kts 251°
2026-04-25 23:08 47.81023 15.74466 19359 ft 374 kts 251°
2026-04-25 23:08 47.80050 15.70860 19877 ft 378 kts 251°
2026-04-25 23:08 47.79077 15.67263 20380 ft 382 kts 251°
2026-04-25 23:09 47.78081 15.63593 20943 ft 384 kts 251°
2026-04-25 23:09 47.77077 15.59904 21534 ft 386 kts 251°
2026-04-25 23:09 47.76064 15.56185 22039 ft 390 kts 251°
2026-04-25 23:09 47.75042 15.52443 22534 ft 393 kts 251°
2026-04-25 23:10 47.74008 15.48666 23031 ft 396 kts 251°
2026-04-25 23:10 47.72969 15.44871 23553 ft 398 kts 251°
2026-04-25 23:10 47.71918 15.41045 23950 ft 402 kts 250°
2026-04-25 23:10 47.70857 15.37177 24311 ft 406 kts 251°
2026-04-25 23:11 47.69804 15.33348 24703 ft 408 kts 251°
2026-04-25 23:11 47.68727 15.29436 25098 ft 411 kts 251°
2026-04-25 23:11 47.67639 15.25496 25367 ft 415 kts 251°
2026-04-25 23:11 47.66530 15.21511 25598 ft 420 kts 251°
2026-04-25 23:12 47.65403 15.17491 25898 ft 423 kts 251°
2026-04-25 23:12 47.64277 15.13442 26278 ft 426 kts 251°
2026-04-25 23:12 47.63152 15.09370 26678 ft 428 kts 251°
2026-04-25 23:12 47.62023 15.05276 27076 ft 430 kts 251°
2026-04-25 23:13 47.60885 15.01159 27448 ft 433 kts 251°
2026-04-25 23:13 47.59749 14.97078 27812 ft 436 kts 251°
2026-04-25 23:13 47.58584 14.92915 28152 ft 438 kts 251°
2026-04-25 23:13 47.57412 14.88738 28504 ft 441 kts 251°
2026-04-25 23:14 47.56232 14.84537 28809 ft 444 kts 251°
2026-04-25 23:14 47.55041 14.80308 29137 ft 446 kts 251°
2026-04-25 23:14 47.53842 14.76058 29449 ft 449 kts 251°
2026-04-25 23:14 47.52634 14.71783 29784 ft 452 kts 251°
2026-04-25 23:15 47.51417 14.67484 30129 ft 454 kts 251°
2026-04-25 23:15 47.50209 14.63222 30423 ft 457 kts 251°
2026-04-25 23:15 47.48980 14.58901 30801 ft 456 kts 251°
2026-04-25 23:15 47.47752 14.54586 31205 ft 455 kts 251°
2026-04-25 23:16 47.46528 14.50284 31633 ft 453 kts 251°
2026-04-25 23:16 47.45303 14.45998 32081 ft 452 kts 251°
2026-04-25 23:16 47.44081 14.41733 32509 ft 450 kts 251°
2026-04-25 23:16 47.42862 14.37482 32923 ft 448 kts 251°
2026-04-25 23:17 47.41650 14.33253 33350 ft 447 kts 251°
2026-04-25 23:17 47.40439 14.29035 33761 ft 445 kts 251°
2026-04-25 23:17 47.39246 14.24892 34040 ft 445 kts 251°
2026-04-25 23:17 47.38041 14.20714 34103 ft 439 kts 251°
2026-04-25 23:18 47.35657 14.12468 34101 ft 436 kts 251°
2026-04-25 23:18 47.33280 14.04260 34109 ft 435 kts 251°
2026-04-25 23:19 47.30899 13.96067 34104 ft 435 kts 251°
2026-04-25 23:19 47.28521 13.87924 34106 ft 436 kts 251°
2026-04-25 23:20 47.26117 13.79727 34117 ft 436 kts 251°
2026-04-25 23:20 47.23713 13.71540 34115 ft 435 kts 251°
2026-04-25 23:21 47.21305 13.63366 34119 ft 435 kts 251°
2026-04-25 23:21 47.18891 13.55207 34122 ft 435 kts 250°
2026-04-25 23:22 47.16486 13.47095 34134 ft 435 kts 250°
2026-04-25 23:23 47.12849 13.34882 34136 ft 435 kts 250°
2026-04-25 23:23 47.10414 13.26753 34125 ft 435 kts 250°
2026-04-25 23:24 47.07970 13.18632 34127 ft 435 kts 250°
2026-04-25 23:24 47.05540 13.10572 34128 ft 435 kts 250°
2026-04-25 23:25 47.03096 13.02469 34125 ft 435 kts 250°
2026-04-25 23:25 47.00644 12.94365 34129 ft 435 kts 250°
2026-04-25 23:26 46.98185 12.86288 33973 ft 433 kts 250°
2026-04-25 23:26 46.96955 12.82266 33780 ft 432 kts 250°
2026-04-25 23:26 46.95747 12.78318 33581 ft 431 kts 250°
2026-04-25 23:26 46.94516 12.74304 33393 ft 432 kts 249°
2026-04-25 23:27 46.93283 12.70286 33200 ft 433 kts 249°
2026-04-25 23:27 46.92051 12.66270 33097 ft 433 kts 249°
2026-04-25 23:27 46.90817 12.62245 33133 ft 434 kts 249°
2026-04-25 23:28 46.88342 12.54185 33147 ft 435 kts 249°
2026-04-25 23:28 46.85862 12.46136 33162 ft 434 kts 249°
2026-04-25 23:29 46.83380 12.38155 33177 ft 434 kts 249°
2026-04-25 23:29 46.80875 12.30123 33198 ft 435 kts 249°
2026-04-25 23:30 46.78289 12.22128 33191 ft 436 kts 247°
2026-04-25 23:30 46.75553 12.14229 33122 ft 436 kts 246°
2026-04-25 23:31 46.72798 12.06357 33112 ft 436 kts 246°
2026-04-25 23:31 46.70082 11.98517 33119 ft 436 kts 247°
2026-04-25 23:32 46.67361 11.90630 33112 ft 436 kts 247°
2026-04-25 23:32 46.64634 11.82741 33112 ft 436 kts 247°
2026-04-25 23:33 46.61898 11.74869 33119 ft 436 kts 246°
2026-04-25 23:33 46.59153 11.67001 33111 ft 436 kts 246°
2026-04-25 23:34 46.56422 11.59195 33101 ft 436 kts 246°
2026-04-25 23:34 46.53669 11.51344 33103 ft 436 kts 246°
2026-04-25 23:35 46.50910 11.43501 33105 ft 436 kts 246°
2026-04-25 23:35 46.48141 11.35663 33098 ft 437 kts 246°
2026-04-25 23:36 46.45371 11.27830 33089 ft 436 kts 246°
2026-04-25 23:36 46.42601 11.20009 33086 ft 436 kts 246°
2026-04-25 23:37 46.39839 11.12242 33193 ft 437 kts 246°
2026-04-25 23:37 46.37042 11.04431 33197 ft 437 kts 246°
2026-04-25 23:38 46.34238 10.96620 33196 ft 437 kts 246°
2026-04-25 23:38 46.31432 10.88809 33180 ft 438 kts 246°
2026-04-25 23:39 46.28668 10.81046 33155 ft 437 kts 247°
2026-04-25 23:39 46.25954 10.73185 33145 ft 437 kts 247°
2026-04-25 23:40 46.23243 10.65326 33123 ft 437 kts 247°
2026-04-25 23:40 46.20508 10.57496 33119 ft 437 kts 247°
2026-04-25 23:41 46.17774 10.49708 33082 ft 440 kts 247°
2026-04-25 23:41 46.14987 10.41807 33063 ft 443 kts 246°
2026-04-25 23:42 46.12175 10.33851 33081 ft 446 kts 246°
2026-04-25 23:42 46.09362 10.25892 33068 ft 446 kts 246°
2026-04-25 23:42 46.07975 10.21971 32796 ft 446 kts 246°
2026-04-25 23:43 46.06553 10.17961 31636 ft 455 kts 246°
2026-04-25 23:43 46.05100 10.13872 30709 ft 460 kts 246°
2026-04-25 23:43 46.03648 10.09787 30038 ft 457 kts 246°
2026-04-25 23:43 46.02240 10.05713 29361 ft 453 kts 247°
2026-04-25 23:44 46.00884 10.01679 29079 ft 442 kts 248°
2026-04-25 23:44 45.99585 9.97757 29080 ft 428 kts 248°
2026-04-25 23:44 45.98308 9.93887 29088 ft 427 kts 248°
2026-04-25 23:45 45.95743 9.86207 28875 ft 425 kts 248°
2026-04-25 23:45 45.94463 9.82430 27943 ft 426 kts 248°
2026-04-25 23:45 45.93167 9.78619 27002 ft 423 kts 248°
2026-04-25 23:45 45.91880 9.74836 26071 ft 420 kts 248°
2026-04-25 23:46 45.90601 9.71080 25170 ft 417 kts 248°
2026-04-25 23:46 45.89330 9.67349 24289 ft 415 kts 248°
2026-04-25 23:46 45.88063 9.63632 23404 ft 414 kts 248°
2026-04-25 23:46 45.86801 9.59936 22411 ft 412 kts 248°
2026-04-25 23:47 45.85542 9.56258 21584 ft 408 kts 248°
2026-04-25 23:47 45.84305 9.52653 21020 ft 397 kts 247°
2026-04-25 23:47 45.83098 9.49140 20489 ft 388 kts 247°
2026-04-25 23:47 45.81930 9.45741 19920 ft 383 kts 247°
2026-04-25 23:48 45.80761 9.42331 19396 ft 380 kts 247°
2026-04-25 23:48 45.79603 9.38957 18877 ft 374 kts 247°
2026-04-25 23:48 45.78438 9.35678 18360 ft 367 kts 242°
2026-04-25 23:48 45.76851 9.32757 17779 ft 376 kts 232°
2026-04-25 23:49 45.75113 9.29969 17201 ft 375 kts 231°
2026-04-25 23:49 45.73368 9.27194 16629 ft 375 kts 231°
2026-04-25 23:49 45.71620 9.24429 16067 ft 374 kts 230°
2026-04-25 23:49 45.69879 9.21684 15522 ft 372 kts 230°
2026-04-25 23:50 45.68169 9.18986 15019 ft 370 kts 230°
2026-04-25 23:50 45.66459 9.16283 14627 ft 364 kts 230°
2026-04-25 23:50 45.64773 9.13620 14345 ft 358 kts 230°
2026-04-25 23:50 45.63109 9.10989 14135 ft 357 kts 229°
2026-04-25 23:51 45.61455 9.08375 13923 ft 351 kts 229°
2026-04-25 23:51 45.59841 9.05830 13678 ft 340 kts 229°
2026-04-25 23:51 45.58271 9.03360 13440 ft 331 kts 229°
2026-04-25 23:51 45.56747 9.00961 13205 ft 323 kts 229°
2026-04-25 23:52 45.55254 8.98613 12956 ft 316 kts 229°
2026-04-25 23:52 45.53788 8.96310 12733 ft 312 kts 229°
2026-04-25 23:52 45.52355 8.94083 12504 ft 305 kts 226°
2026-04-25 23:52 45.50648 8.92358 12291 ft 300 kts 204°
2026-04-25 23:53 45.48668 8.91585 12062 ft 293 kts 184°
2026-04-25 23:53 45.46663 8.91783 11867 ft 287 kts 168°
2026-04-25 23:53 45.44704 8.92328 11717 ft 286 kts 168°
2026-04-25 23:53 45.42751 8.92861 11569 ft 285 kts 168°
2026-04-25 23:54 45.40830 8.93382 11414 ft 276 kts 168°
2026-04-25 23:54 45.38957 8.93891 11285 ft 273 kts 168°
2026-04-25 23:54 45.37097 8.94397 11144 ft 272 kts 168°
2026-04-25 23:54 45.35267 8.94891 11003 ft 271 kts 168°
2026-04-25 23:55 45.33420 8.95387 10848 ft 270 kts 168°
2026-04-25 23:55 45.31576 8.95884 10704 ft 269 kts 168°
2026-04-25 23:55 45.29737 8.96382 10558 ft 268 kts 168°
2026-04-25 23:55 45.27906 8.96880 10429 ft 268 kts 168°
2026-04-25 23:56 45.26074 8.97380 10280 ft 268 kts 168°
2026-04-25 23:56 45.24250 8.97880 10146 ft 267 kts 168°
2026-04-25 23:56 45.22469 8.98369 10004 ft 259 kts 168°
2026-04-25 23:56 45.20738 8.98836 9843 ft 249 kts 168°
2026-04-25 23:57 45.19054 8.99286 9685 ft 245 kts 169°
2026-04-25 23:57 45.17373 8.99280 9517 ft 243 kts 197°
2026-04-25 23:57 45.15947 8.98086 9374 ft 240 kts 229°
2026-04-25 23:57 45.15188 8.96045 9217 ft 235 kts 262°
2026-04-25 23:58 45.15222 8.93779 9032 ft 229 kts 288°
2026-04-25 23:58 45.15983 8.91786 8993 ft 239 kts 314°
2026-04-25 23:58 45.17349 8.90437 8651 ft 241 kts 339°
2026-04-25 23:58 45.18903 8.89621 8290 ft 241 kts 341°
2026-04-25 23:59 45.20471 8.88798 7901 ft 240 kts 340°
2026-04-25 23:59 45.22034 8.87971 7526 ft 239 kts 340°
2026-04-25 23:59 45.23589 8.87143 7154 ft 238 kts 340°
2026-04-25 23:59 45.25132 8.86318 6790 ft 236 kts 340°
2026-04-26 00:00 45.26665 8.85495 6552 ft 236 kts 341°
2026-04-26 00:00 45.28200 8.84677 6304 ft 235 kts 341°
2026-04-26 00:00 45.29731 8.83861 6043 ft 235 kts 341°
2026-04-26 00:00 45.31238 8.83056 5802 ft 234 kts 340°
2026-04-26 00:01 45.32763 8.82242 5546 ft 227 kts 340°
2026-04-26 00:01 45.34200 8.81475 5295 ft 221 kts 340°
2026-04-26 00:01 45.35614 8.80717 5052 ft 214 kts 340°
2026-04-26 00:01 45.36994 8.79990 4811 ft 208 kts 343°
2026-04-26 00:02 45.38375 8.79494 4552 ft 202 kts 346°
2026-04-26 00:02 45.39735 8.79013 4303 ft 200 kts 346°
2026-04-26 00:02 45.41076 8.78538 4095 ft 198 kts 346°
2026-04-26 00:02 45.42407 8.78054 3964 ft 197 kts 346°
2026-04-26 00:03 45.43747 8.77621 3862 ft 198 kts 348°
2026-04-26 00:03 45.45099 8.77233 3743 ft 198 kts 349°
2026-04-26 00:03 45.46434 8.76864 3670 ft 199 kts 349°
2026-04-26 00:03 45.47789 8.76490 3428 ft 198 kts 349°
2026-04-26 00:04 45.49147 8.76117 3173 ft 198 kts 349°
2026-04-26 00:04 45.50494 8.75747 2913 ft 197 kts 348°
2026-04-26 00:04 45.51809 8.75385 2670 ft 179 kts 348°
2026-04-26 00:04 45.52940 8.75074 2434 ft 156 kts 348°
2026-04-26 00:05 45.53976 8.74789 2233 ft 148 kts 348°
2026-04-26 00:05 45.54979 8.74513 2040 ft 146 kts 348°
2026-04-26 00:05 45.55970 8.74242 1842 ft 145 kts 346°
2026-04-26 00:05 45.56944 8.73971 1614 ft 144 kts 346°
2026-04-26 00:06 45.57924 8.73702 1414 ft 143 kts 349°
2026-04-26 00:06 45.58893 8.73431 1223 ft 142 kts 348°
2026-04-26 00:06 45.59859 8.73164 1040 ft 141 kts 348°
2026-04-26 00:06 45.60816 8.72900 855 ft 140 kts 349°
2026-04-26 00:07 45.61766 8.72638 728 ft 136 kts 349°
2026-04-26 00:07 45.62565 8.72415 731 ft 92 kts 350°
2026-04-26 00:07 45.62990 8.72306 742 ft 46 kts 350°
2026-04-26 00:07 45.63264 8.72227 744 ft 24 kts 347°
2026-04-26 00:08 45.63338 8.72125 748 ft 14 kts 274°
2026-04-26 00:08 45.63326 8.72016 747 ft 8 kts 259°
2026-04-26 00:08 45.63278 8.71972 746 ft 14 kts 180°
2026-04-26 00:08 45.63166 8.72000 743 ft 18 kts 169°
2026-04-26 00:09 45.63035 8.72034 743 ft 19 kts 170°
2026-04-26 00:09 45.62985 8.71993 742 ft 5 kts 279°
2026-04-26 00:09 45.62988 8.71924 742 ft 10 kts 262°
2026-04-26 00:09 45.62973 8.71812 742 ft 13 kts 258°
2026-04-26 00:10 45.62907 8.71761 740 ft 13 kts 173°
2026-04-26 00:10 45.62850 8.71776 739 ft 3 kts 167°
2026-04-26 00:10 45.62818 8.71787 739 ft 6 kts 167°
2026-04-26 00:10 45.62794 8.71781 738 ft 2 kts 232°
2026-04-26 00:11 45.62803 8.71758 738 ft 5 kts 313°
2026-04-26 00:11 45.62824 8.71719 739 ft 5 kts 274°
2026-04-26 00:11 45.62818 8.71658 739 ft 0 kts 260°